Theta_e
299 299 299 300 300 301 301 301 302 302 301 301 302 302 303 302 303 303 303 305 305 305 306 306 307 308 308 310 312 310 307 306 300 307 312 313 310 309 308 309 311 310 311
299 298 298 299 299 299 299 300 301 300 301 302 301 301 301 302 302 302 302 303 303 303 304 305 306 306 306 309 310 310 308 308 302 301 309 311 308 308 308 307 307 308 310
297 297 297 297 297 297 298 299 299 299 300 300 300 300 300 301 301 302 302 301 301 302 303 305 305 305 305 306 307 308 309 308 305 303 303 306 308 308 307 307 308 308 307
297 296 296 296 296 296 297 297 297 298 297 299 299 299 300 300 301 301 301 302 303 304 304 305 304 305 304 305 305 306 307 307 306 301 299 301 306 306 306 304 304 306 304
295 295 295 296 296 296 295 296 297 297 297 297 298 298 299 299 299 299 301 302 302 303 303 303 304 305 306 306 305 305 307 305 306 304 298 300 304 303 302 304 303 303 304
295 295 296 296 297 296 295 295 295 295 295 295 295 297 297 298 301 301 302 301 301 301 301 302 303 304 304 307 308 309 308 305 304 303 299 302 303 304 304 304 303 302 300
293 294 294 294 295 295 294 294 294 295 295 295 295 296 297 298 301 302 303 302 301 301 301 302 301 301 304 303 306 308 308 310 309 307 300 302 301 305 305 305 304 304 302
293 293 295 294 293 294 294 294 294 294 294 294 295 295 296 298 300 301 302 301 301 301 301 301 301 301 302 302 301 302 305 307 309 307 304 304 303 305 304 306 304 305 305
291 293 293 293 292 293 293 293 293 294 292 294 295 295 295 296 299 300 301 300 300 300 300 300 300 300 302 303 300 302 302 305 310 312 309 306 306 307 307 304 303 301 300
292 292 293 293 294 292 293 293 293 293 293 293 294 295 297 295 298 300 300 299 297 298 299 299 301 301 303 302 302 302 301 304 306 307 307 307 307 306 309 306 304 301 301
293 294 294 294 293 293 293 293 293 292 293 293 293 294 295 296 296 299 299 298 296 296 296 298 299 301 302 303 304 303 303 305 306 303 304 301 301 302 303 305 306 305 302
294 293 292 293 293 294 293 292 292 292 292 292 291 292 294 294 297 298 299 299 299 297 298 300 301 302 303 304 304 305 306 306 303 302 300 299 301 303 304 306 307 307 306
292 292 292 293 293 293 292 292 292 292 291 291 291 290 291 293 295 297 298 299 300 298 300 302 302 303 304 304 305 305 306 303 301 301 300 302 303 304 304 303 303 303 303
291 291 292 292 293 293 293 293 293 292 291 291 291 291 292 293 294 296 297 296 299 299 301 300 301 303 304 305 304 304 303 301 301 300 301 302 303 301 300 301 301 303 300
291 290 291 292 292 292 293 293 292 294 294 293 293 293 292 293 295 297 297 296 296 298 298 299 296 298 299 298 300 299 299 300 300 301 301 299 299 299 299 303 303 300 300
290 290 291 291 291 292 292 292 296 297 297 297 297 297 296 298 299 300 300 300 300 301 297 298 297 296 295 295 295 296 297 298 298 299 299 298 298 300 301 299 300 301 304
290 290 291 291 291 291 290 291 291 293 296 297 298 299 299 302 302 302 301 301 301 301 295 294 293 293 293 294 295 296 296 297 298 297 298 300 300 298 298 299 301 304 304
291 293 291 291 291 291 292 294 293 292 290 292 300 300 302 301 300 300 299 298 295 295 294 293 292 294 294 295 296 295 295 296 297 299 298 297 297 297 298 301 305 304 305
290 290 291 291 290 292 293 294 293 293 294 295 296 298 299 300 300 300 299 296 294 294 295 294 296 296 296 296 295 295 296 296 297 295 294 294 295 297 299 305 306 305 305
290 293 292 290 290 289 292 295 295 294 294 294 294 295 297 298 295 296 297 297 295 295 295 295 295 295 295 294 294 294 294 295 293 292 293 294 296 298 301 306 307 305 305
290 290 293 289 289 290 293 294 294 294 293 294 294 297 297 295 294 294 295 295 295 295 295 295 295 294 294 294 294 294 294 293 292 292 293 294 297 297 304 306 307 307 306
290 290 290 289 289 290 292 293 293 294 294 293 293 295 295 294 293 292 293 293 294 296 296 295 294 294 295 294 294 293 293 291 291 292 293 295 296 298 304 307 307 306 305
289 289 289 289 290 291 291 292 293 293 292 293 293 292 292 292 292 292 292 294 295 295 296 296 295 294 295 295 296 295 293 292 293 293 293 294 295 296 300 303 304 305 305
288 289 288 288 289 289 289 291 291 292 292 292 291 291 291 291 292 292 294 295 295 295 296 296 296 294 294 294 294 295 294 295 295 294 294 294 294 295 297 299 304 304 305
289 288 288 288 288 288 288 288 288 291 291 291 290 290 290 291 292 293 294 294 294 295 295 295 295 294 294 293 293 294 292 292 294 294 294 294 293 294 295 297 301 303 303
289 288 288 288 288 288 288 288 288 288 289 289 290 291 291 292 293 294 294 294 294 294 294 294 294 293 292 293 293 292 292 292 293 294 294 294 293 293 294 296 298 301 302
Wind_Speed
19 19 20 19 20 20 19 20 19 20 21 20 19 20 19 18 17 15 17 18 18 16 16 15 14 13 10 10 9 9 9 10 11 12 12 9 11 12 10 11 12 13 12
19 20 21 21 21 21 20 21 21 21 21 19 19 19 19 17 17 16 17 17 18 17 17 16 16 11 13 12 11 12 10 12 8 12 12 10 12 13 13 13 11 11 12
19 20 20 20 21 22 22 22 21 22 21 21 20 19 19 17 16 16 16 17 18 18 18 17 16 15 14 11 12 12 11 9 11 8 11 10 9 9 11 11 12 11 10
19 19 20 20 21 20 21 22 22 21 21 21 21 19 17 16 18 17 16 17 16 15 16 16 16 16 16 14 13 13 12 11 10 8 6 8 10 9 10 11 11 10 10
19 20 21 21 21 20 20 21 21 21 20 18 19 18 16 15 14 14 18 17 17 17 18 17 17 20 22 19 12 13 13 11 10 10 7 9 12 11 13 11 11 10 11
20 21 21 20 20 18 19 20 18 20 19 18 18 18 16 12 21 23 20 18 16 16 17 17 17 21 21 25 25 25 20 12 15 11 9 13 17 10 11 11 11 10 9
20 21 21 21 21 20 18 20 20 20 20 21 20 17 17 19 23 24 24 17 16 16 17 16 15 14 18 17 19 23 24 26 25 14 12 15 14 13 12 15 14 12 11
20 22 20 22 21 20 18 19 19 16 20 18 19 18 16 16 22 21 22 19 17 18 18 17 18 18 17 16 13 13 15 16 16 14 13 14 13 10 12 12 11 13 9
20 22 20 21 21 19 19 19 15 15 15 17 16 16 18 17 22 23 20 16 14 18 17 18 19 20 21 21 14 15 16 14 14 23 26 21 20 14 11 8 11 10 9
21 20 20 21 19 21 19 14 12 14 13 11 16 15 21 16 20 22 19 13 15 13 17 18 23 20 23 23 16 14 16 15 12 13 14 19 16 14 17 14 9 10 9
20 21 20 20 19 18 16 12 12 12 11 14 14 14 14 15 16 22 21 14 13 14 13 13 12 19 23 25 26 15 17 13 13 9 8 7 8 9 11 12 11 9 9
20 20 21 20 16 14 15 11 15 13 13 13 13 12 10 14 20 20 24 26 23 15 15 11 14 23 25 24 21 23 25 18 9 8 8 8 9 10 10 10 11 9 8
20 20 20 19 17 14 14 12 12 12 10 11 9 9 10 11 11 19 22 24 25 17 12 17 23 24 26 22 26 26 23 10 9 9 9 9 11 10 12 10 9 10 9
20 21 18 17 18 15 11 10 10 9 10 10 9 9 9 10 10 10 9 10 19 17 17 15 18 21 20 18 15 17 10 10 10 8 9 9 9 8 8 8 8 7 5
19 18 18 14 15 14 12 10 9 12 10 10 10 10 11 12 12 18 17 11 10 10 16 14 11 11 7 5 6 10 8 7 7 8 9 9 9 8 8 6 6 5 5
18 15 14 13 13 12 11 10 14 19 21 22 24 19 12 24 31 30 29 27 27 25 8 2 7 9 8 9 9 9 8 9 7 8 8 7 8 7 6 5 5 6 7
18 17 13 15 13 12 12 10 8 8 16 20 21 21 23 11 7 7 12 8 9 15 7 10 11 10 10 10 9 8 8 5 5 4 5 6 5 6 6 5 6 7 7
18 25 13 12 12 11 11 8 7 8 10 10 6 4 20 26 25 25 27 23 14 15 11 11 11 10 9 10 9 8 6 4 4 4 3 4 4 4 4 6 8 8 8
15 12 13 11 11 13 11 6 6 7 7 8 10 15 19 24 24 23 22 12 12 13 12 11 10 10 10 9 7 6 4 3 3 3 2 1 2 3 3 8 8 10 10
14 23 18 10 10 10 10 7 7 8 9 9 9 8 9 13 11 12 12 12 12 12 11 11 10 10 8 8 7 6 5 5 4 3 3 2 1 3 5 8 9 9 9
11 12 21 10 10 9 8 8 8 8 9 10 10 13 22 11 11 12 11 11 11 11 10 10 9 8 8 7 6 6 7 6 5 4 3 2 1 3 5 8 8 7 9
11 11 10 10 10 9 9 7 8 9 9 10 10 14 23 11 11 11 11 10 9 9 9 9 8 7 7 7 8 7 8 6 6 5 4 3 3 5 5 8 10 9 10
11 12 11 10 9 13 9 9 9 10 10 10 9 9 10 9 9 9 9 8 7 9 9 8 7 9 9 9 9 8 6 6 6 6 5 5 6 6 5 6 7 8 8
11 10 10 10 10 9 9 9 9 12 9 9 8 9 9 8 8 10 9 8 9 10 9 8 9 12 11 10 9 9 7 6 7 7 8 8 8 8 6 6 7 10 9
10 10 9 9 9 9 9 9 9 9 8 8 7 7 8 8 8 8 9 8 10 9 10 11 9 14 16 17 16 16 15 16 12 10 8 10 11 11 8 5 7 8 9
9 10 9 8 8 8 8 8 8 8 8 8 7 7 7 7 7 8 9 10 9 9 11 9 12 16 16 14 15 16 16 17 14 15 10 10 10 8 8 9 11 7 8
Wind_Direction
309 307 302 298 296 293 291 288 282 286 282 279 281 276 262 258 257 257 258 258 257 259 263 262 259 263 262 255 247 230 230 230 235 253 268 222 216 214 194 205 213 207 202
307 305 302 302 300 296 292 290 289 286 281 280 280 272 262 257 256 257 254 258 258 256 259 256 261 258 257 254 247 239 232 234 225 245 247 243 225 218 203 189 208 210 218
311 308 306 305 304 300 296 295 292 288 283 283 274 268 259 258 257 255 254 259 258 258 256 255 262 263 262 257 251 245 237 235 225 216 239 265 218 222 213 195 199 211 217
309 307 304 303 302 301 299 296 292 287 283 282 274 269 264 268 262 257 252 255 256 254 256 254 259 261 262 261 257 251 234 234 227 216 221 246 235 214 231 195 191 207 212
308 304 302 301 303 300 298 294 292 288 286 283 281 274 263 245 253 252 269 242 239 242 248 253 258 262 266 263 265 256 240 231 228 222 208 226 220 209 219 201 199 194 214
309 310 310 307 302 300 293 294 293 291 290 284 280 276 266 258 259 259 239 256 241 243 246 248 252 258 257 254 253 249 255 220 231 227 211 216 223 210 210 208 204 201 203
304 300 306 301 300 295 290 287 283 285 283 278 274 272 266 263 257 259 250 241 249 251 253 252 253 253 249 251 249 249 247 245 225 225 220 216 222 214 209 211 196 201 205
300 307 302 306 299 293 281 277 277 281 280 279 276 267 261 261 258 254 248 244 246 253 254 257 259 258 254 248 241 254 256 244 223 219 217 220 239 227 216 220 201 199 207
305 304 307 306 297 298 288 285 285 275 282 270 273 268 264 257 253 246 247 245 247 253 258 258 258 258 256 249 243 240 252 250 233 218 220 215 226 245 228 205 205 188 205
314 308 302 306 297 300 295 285 271 274 273 280 267 267 260 258 260 260 249 249 253 255 259 257 253 249 254 246 246 243 242 246 240 236 216 214 213 224 218 209 197 195 205
306 310 308 304 300 297 299 286 280 286 268 271 270 273 267 261 259 257 249 254 259 261 257 255 252 248 252 251 247 236 244 249 230 209 197 181 194 195 208 211 205 199 207
312 308 309 305 302 300 294 283 278 278 281 275 270 269 267 266 259 254 255 255 258 254 252 246 241 242 247 247 245 238 238 245 191 185 181 185 181 188 197 194 201 208 223
310 312 309 305 302 298 289 275 283 286 272 266 268 267 268 271 268 263 257 255 253 248 238 249 253 247 241 243 241 236 242 220 175 175 175 183 195 192 196 198 203 209 225
313 312 309 308 306 302 293 280 280 276 277 280 276 274 272 268 263 263 256 253 260 262 262 266 254 244 238 227 237 240 213 164 166 177 184 181 194 194 194 192 204 200 203
312 313 311 310 306 303 294 285 271 274 266 276 276 271 267 266 260 259 254 247 238 238 263 240 215 225 195 213 171 128 129 146 161 174 184 181 191 194 200 177 190 175 202
314 316 312 311 309 305 304 299 282 277 283 282 281 278 276 278 279 274 269 262 253 247 253 210 140 120 134 115 110 115 119 137 150 170 182 187 196 190 183 180 178 193 201
318 319 318 317 314 317 313 305 307 301 291 287 286 286 286 318 31 212 80 168 140 133 110 94 96 99 92 93 96 98 107 108 131 166 188 187 184 180 177 171 184 178 173
324 321 320 318 320 320 317 335 333 321 317 322 12 40 81 68 66 75 77 75 73 71 73 80 81 81 87 93 95 96 105 133 164 162 158 174 175 166 168 185 175 160 162
328 322 328 326 324 330 327 330 326 331 26 37 46 54 64 70 69 64 68 71 74 77 76 77 79 79 76 76 79 89 99 100 83 90 122 122 132 164 184 169 166 161 149
329 329 339 338 334 341 332 346 27 46 48 47 43 40 44 55 58 59 60 64 68 70 69 70 72 76 73 72 71 66 62 61 47 37 33 28 109 170 169 166 152 147 133
329 332 340 345 346 349 360 22 36 50 54 52 55 59 64 59 58 56 60 62 65 65 70 71 67 66 64 59 57 53 54 43 23 16 3 346 131 134 158 153 130 124 127
334 338 345 347 350 2 14 27 39 52 59 61 55 59 63 55 55 57 61 63 58 62 67 69 65 60 60 52 50 50 43 26 21 0 360 24 64 78 110 132 132 135 135
343 346 351 353 0 6 22 27 41 48 53 57 58 61 56 55 60 63 67 65 61 74 74 68 62 64 59 54 48 47 34 20 13 6 7 44 58 64 85 110 130 126 136
357 350 354 354 4 14 20 31 41 45 52 55 56 58 59 57 64 70 66 61 70 73 65 62 62 65 60 56 52 46 27 19 25 15 24 49 54 53 67 86 115 129 130
356 3 360 3 4 7 17 31 32 33 43 52 48 51 58 61 63 63 71 66 69 68 67 71 68 65 61 61 55 48 35 36 37 29 37 47 54 50 56 72 100 117 120
358 7 2 -0 14 13 18 25 30 31 36 40 45 53 55 57 59 66 69 71 72 72 72 65 69 68 63 53 43 33 36 36 37 38 43 46 50 49 55 65 76 92 120